Temperature
31 32 32 33 33 33 33 33 32 32 32 32 31 31 31 29 28 28 27 26 25 25 24 23 22 22 21 21 20 20 20 20 19 19 19 18 18 18 18 18 18 18 18 17
31 32 33 33 33 32 32 32 32 32 32 31 31 31 31 30 29 28 27 27 26 25 24 23 22 22 21 21 21 21 20 20 20 19 19 19 19 18 18 18 18 18 18 17
31 32 33 32 32 32 32 32 32 32 31 31 31 31 31 30 29 28 27 27 27 26 25 24 23 22 22 21 21 21 21 20 20 19 19 19 19 18 18 18 18 18 18 18
32 32 32 31 32 32 32 33 32 32 31 32 31 31 31 31 30 29 28 27 27 26 25 24 23 22 22 22 22 21 21 21 20 20 19 19 19 19 18 18 18 18 18 18
31 31 31 31 32 32 32 32 32 32 31 31 31 31 32 31 30 30 29 28 27 26 26 25 24 23 23 22 22 21 21 21 20 20 20 19 19 19 19 18 18 18 18 18
31 32 32 32 32 32 32 31 31 31 32 30 31 31 31 32 31 31 30 28 27 27 26 25 24 23 23 22 22 22 21 21 21 20 20 19 19 19 19 18 18 18 18 18
30 30 31 31 31 31 31 31 30 30 30 30 31 31 31 32 31 31 30 29 27 26 26 25 24 23 22 22 22 21 21 21 21 20 20 19 19 19 19 19 18 18 18 18
29 30 31 31 31 31 31 31 30 29 30 31 30 30 31 31 30 29 29 29 27 27 26 25 24 23 22 22 22 21 21 21 21 20 20 20 20 19 19 19 19 18 18 18
30 30 31 31 32 32 31 31 32 31 31 30 31 31 31 31 30 30 29 28 27 26 25 25 24 23 22 22 22 21 21 21 21 21 20 20 20 19 19 19 19 18 18 18
30 29 30 30 31 30 31 32 31 31 29 29 30 30 31 30 30 30 29 28 26 26 25 24 23 23 22 22 21 21 21 21 21 21 20 20 20 20 20 19 19 18 18 18
30 29 30 30 30 30 30 30 30 31 30 29 29 31 32 31 30 29 28 27 26 25 24 23 23 22 22 21 21 21 21 21 21 21 20 20 20 20 19 19 19 18 18 18
29 30 29 30 30 30 31 30 30 29 29 29 30 30 30 30 30 29 28 26 25 24 23 23 22 21 21 21 21 20 20 20 20 20 20 20 20 19 19 19 19 19 18 18
28 28 28 28 29 29 29 30 30 30 30 29 29 30 29 28 28 27 26 25 24 23 22 22 21 21 21 21 20 20 20 20 20 20 19 19 19 19 19 19 18 18 18 18
27 28 28 28 29 29 29 29 29 29 29 29 29 30 29 28 27 26 25 24 23 22 21 21 21 20 20 20 20 20 20 20 20 19 19 19 19 19 18 18 18 18 18 18
27 27 28 28 29 29 29 29 29 29 29 29 29 29 28 27 26 25 24 23 22 22 21 20 20 19 19 19 19 19 19 19 19 19 19 19 19 18 18 18 18 18 18 17
26 27 27 27 28 28 28 28 28 28 28 28 28 28 28 26 24 23 22 22 22 21 21 20 19 19 19 19 19 19 19 19 18 18 18 18 18 18 18 18 18 17 17 17
26 26 26 27 27 27 27 27 27 27 27 28 28 27 25 24 23 22 22 21 21 21 20 19 19 19 18 18 18 18 18 18 18 18 18 18 18 18 18 17 17 17 17 17
24 25 26 27 26 25 26 26 26 26 26 26 25 25 24 23 22 21 21 20 20 20 19 19 19 18 18 18 18 18 17 17 17 17 17 17 18 17 17 17 17 17 16 16
24 24 26 26 26 26 25 25 25 25 25 24 24 23 22 21 22 21 20 19 19 18 18 18 18 18 17 17 17 17 17 17 17 17 17 17 17 17 17 17 17 16 16 16
23 23 25 25 25 25 25 24 24 25 24 22 22 22 21 21 23 22 19 18 18 17 17 17 17 17 17 17 17 17 16 16 17 17 17 17 17 16 16 16 16 16 16 16
23 23 24 25 25 25 23 23 23 24 23 21 21 20 20 21 21 18 17 17 17 17 17 17 17 17 16 16 16 16 16 16 16 16 16 16 16 16 16 16 16 16 15 15
23 24 23 24 24 24 21 22 23 22 20 20 19 19 18 18 17 17 17 16 16 16 16 16 16 16 16 16 16 16 16 16 16 16 15 16 16 16 15 15 15 15 15 15
22 22 23 22 22 19 19 20 19 19 19 18 18 17 17 17 17 16 16 16 16 16 15 15 15 15 15 15 15 15 15 15 15 15 15 15 15 15 15 15 15 15 15 15
20 19 20 20 19 19 18 18 18 18 18 17 17 17 17 16 16 16 15 15 15 15 15 15 15 15 15 15 14 14 15 15 15 15 15 14 14 14 14 14 14 14 14 14
20 20 20 19 19 18 18 17 17 17 16 16 16 16 16 16 15 15 15 14 14 14 14 14 14 14 14 14 14 14 14 14 14 14 14 14 14 14 14 14 14 14 14 14
19 19 20 20 18 19 17 16 16 16 16 16 15 15 15 15 15 14 14 14 14 14 14 13 13 13 13 13 13 13 13 13 13 13 14 14 14 13 13 13 13 13 13 13
Wind_Speed
10 12 14 12 12 9 7 7 6 4 4 7 8 7 8 12 13 13 14 14 14 13 13 12 12 11 11 11 11 11 10 9 8 6 6 5 5 5 4 4 5 5 5 5
12 16 14 11 10 10 10 10 8 5 4 6 6 7 7 11 13 13 14 15 15 14 13 13 13 13 13 12 12 12 11 10 9 7 5 4 3 4 3 3 3 4 5 5
19 13 11 11 12 13 12 11 9 6 5 7 7 8 9 10 12 12 13 14 14 14 15 15 14 14 14 13 13 12 12 11 10 9 6 5 4 4 4 4 3 4 4 4
15 12 11 14 15 15 13 10 9 8 8 7 8 7 8 10 11 13 14 14 14 14 14 14 15 15 15 14 13 12 12 11 11 10 8 8 6 5 4 4 3 3 4 4
13 12 13 16 15 14 11 7 9 10 10 10 9 9 6 9 10 12 13 13 13 14 14 15 15 15 14 14 13 13 12 11 11 10 9 9 7 5 4 4 4 4 4 5
12 10 12 13 11 11 8 7 7 10 11 13 11 11 8 7 8 9 10 11 12 13 13 14 14 13 13 13 13 12 12 12 11 11 10 10 8 7 5 5 5 5 4 4
14 13 12 11 12 12 12 12 10 11 12 12 8 10 8 4 4 6 7 9 11 11 12 12 13 13 13 13 12 12 12 12 12 11 10 9 8 8 8 7 6 5 5 4
16 17 15 13 15 13 16 17 15 12 12 10 9 10 8 4 3 5 5 6 8 10 11 11 12 12 12 13 13 13 13 12 11 10 9 8 8 7 6 6 6 5 4 4
13 15 13 12 13 14 16 17 16 15 14 13 9 9 9 7 7 6 6 6 7 9 9 10 10 11 12 12 12 12 12 12 11 10 9 8 8 7 6 6 6 5 5 4
11 11 13 11 10 9 12 13 11 13 13 14 12 13 10 9 9 7 6 7 7 7 8 8 9 10 10 10 10 11 11 11 11 10 9 8 8 7 6 6 6 5 5 5
12 12 12 13 14 15 12 13 12 13 13 13 13 9 5 6 7 7 7 7 7 7 7 7 7 8 8 9 10 10 10 10 10 9 9 8 7 7 6 6 6 6 6 6
11 11 12 13 10 8 13 14 14 13 12 13 14 8 2 3 5 5 5 5 6 6 6 6 7 7 8 8 9 9 9 10 9 9 9 8 7 7 7 6 6 6 6 6
8 10 12 12 12 10 12 13 14 14 12 13 15 10 4 3 3 3 3 4 5 5 6 6 7 7 7 7 7 8 8 8 8 8 8 8 7 7 7 6 6 6 6 6
7 11 13 15 11 12 13 13 13 14 14 14 15 11 6 5 4 3 3 4 5 6 6 6 6 6 6 6 6 7 8 7 8 8 8 7 7 7 6 6 6 6 6 6
7 11 12 10 8 11 13 13 13 14 14 14 13 11 7 5 4 4 4 5 5 6 6 6 6 6 6 6 6 6 7 7 7 8 8 7 7 6 6 6 5 5 6 6
5 8 9 10 9 10 10 11 12 12 12 12 11 8 2 3 4 4 4 4 5 5 6 6 6 6 5 5 5 6 6 6 7 7 7 6 6 6 6 5 5 5 6 6
6 7 10 11 10 11 12 9 10 10 9 10 10 5 3 4 4 4 4 4 4 4 5 5 5 4 4 4 5 6 6 6 7 7 6 6 5 5 5 5 5 5 5 6
7 8 8 9 10 15 5 2 5 6 5 4 2 2 3 3 4 4 3 3 3 3 4 4 4 4 3 3 4 5 6 6 6 6 6 5 5 5 5 5 4 4 4 5
6 7 8 10 13 10 5 4 4 6 4 1 2 4 4 4 5 5 4 3 2 2 2 2 2 3 3 3 4 4 5 5 5 5 4 4 5 5 5 5 5 5 5 5
5 7 9 9 12 12 5 4 2 5 6 3 3 4 4 3 4 3 3 2 2 2 2 2 2 1 2 2 3 5 4 4 4 3 3 3 4 4 5 5 5 5 5 7
7 7 10 11 11 5 3 3 5 7 2 4 4 4 3 1 2 2 1 2 2 2 2 2 2 2 2 3 3 4 3 3 2 2 3 3 4 4 5 5 5 5 6 6
7 7 8 9 11 5 3 3 2 2 5 4 4 3 3 4 4 3 3 2 2 2 2 2 2 1 1 1 3 3 2 1 1 2 2 3 4 4 4 4 4 4 5 6
3 3 3 3 1 4 3 4 4 4 4 4 3 3 3 3 2 3 3 3 3 2 2 1 1 1 1 1 0 1 1 2 2 2 3 3 4 4 3 4 4 4 5 5
2 1 1 1 2 4 4 4 4 4 4 3 3 3 2 1 2 2 2 3 3 2 2 2 1 1 1 2 1 2 2 2 2 3 4 4 4 4 4 4 4 4 4 5
2 2 2 3 3 4 3 3 3 3 3 3 2 2 1 1 1 1 1 2 2 2 2 2 2 2 2 2 2 2 2 2 2 3 4 5 4 4 4 4 4 5 4 4
3 3 4 3 3 2 3 2 2 2 2 2 2 2 2 2 1 1 2 2 3 3 3 3 3 3 3 2 2 2 2 3 4 4 4 4 4 4 4 4 4 2 3 2
Wind_Direction
198 217 220 217 225 248 243 245 236 219 189 219 230 229 194 187 195 196 196 198 201 203 197 193 195 194 195 195 196 197 199 193 195 197 200 198 203 207 207 209 205 209 212 207
206 222 226 227 223 229 231 233 231 210 193 230 239 235 212 197 204 204 202 203 206 203 197 195 196 196 198 197 197 196 199 196 197 196 203 209 208 204 203 206 201 221 220 219
220 220 211 217 213 221 228 236 236 222 199 218 240 230 214 205 209 210 212 212 210 206 201 196 197 199 199 199 199 198 197 195 198 195 194 191 192 203 195 201 203 214 218 219
225 219 208 214 217 223 227 228 236 226 224 228 231 252 212 204 206 211 214 213 212 207 205 200 199 200 200 199 197 196 194 194 193 195 200 200 206 209 203 204 198 200 206 212
215 210 211 217 219 224 232 220 224 231 240 251 231 254 237 196 215 214 212 212 210 205 203 200 199 199 199 196 193 191 190 191 192 197 200 208 215 210 203 199 195 209 205 209
225 213 220 224 221 217 195 192 208 228 239 242 241 250 251 223 227 222 209 207 205 203 201 199 198 195 195 193 191 188 186 190 192 197 203 211 214 211 206 205 208 213 210 209
214 212 212 217 208 196 203 213 221 226 230 238 229 244 252 260 242 236 217 202 198 196 196 195 194 191 191 190 189 186 184 187 190 196 203 208 215 213 210 214 213 220 220 217
211 211 204 208 216 210 214 226 233 240 243 236 213 237 244 243 230 231 219 199 189 188 190 192 191 190 188 188 187 185 184 186 187 192 199 204 210 216 214 214 219 220 226 228
220 217 198 208 218 222 216 228 241 247 254 256 236 236 239 228 221 216 203 188 185 182 183 185 184 187 186 185 185 185 183 183 184 188 191 197 206 214 213 211 219 223 222 223
233 225 203 194 202 222 238 229 231 238 241 248 241 237 236 217 212 205 196 186 179 172 174 175 177 182 183 183 182 184 184 185 185 187 194 195 198 201 206 217 220 224 223 224
230 228 209 199 213 213 206 217 229 236 245 249 252 241 228 221 222 210 198 182 169 168 166 166 166 170 174 175 177 180 183 185 186 187 189 191 193 193 198 209 214 216 221 220
218 227 222 212 213 235 221 223 223 231 235 246 262 255 156 205 212 203 186 164 157 156 155 154 156 160 166 169 171 174 179 185 186 185 184 187 189 190 196 203 209 211 216 221
204 221 219 211 205 207 218 220 226 237 242 244 250 246 150 151 174 179 169 157 153 152 148 148 149 155 160 162 165 169 174 181 181 181 184 185 190 194 202 205 207 210 216 225
217 225 231 233 221 207 214 216 219 230 240 244 248 252 215 195 190 172 156 155 153 149 145 146 144 147 153 157 161 166 170 173 176 179 184 187 193 197 203 208 211 216 221 225
220 224 229 243 238 220 221 219 217 228 243 252 253 249 233 208 186 161 152 148 151 150 147 145 144 146 153 158 162 165 170 173 177 181 187 190 192 194 201 208 214 219 223 227
227 225 218 224 223 219 219 220 218 226 235 243 249 248 212 150 144 147 150 153 159 157 149 144 144 145 150 159 165 170 176 176 179 184 186 185 189 193 201 209 213 218 224 230
213 215 221 219 210 214 217 218 219 219 231 239 245 241 158 157 159 155 148 152 153 146 147 149 153 150 150 158 165 175 179 177 180 185 187 189 193 198 205 212 214 220 227 234
224 227 225 221 208 227 213 184 217 214 227 253 268 123 153 156 149 137 127 122 126 136 136 149 158 155 158 160 162 169 172 175 179 183 187 192 200 206 212 215 218 225 232 238
223 221 224 224 223 219 186 189 207 212 207 174 163 133 126 129 146 138 95 82 94 104 115 128 144 162 160 163 168 169 169 172 175 181 190 199 207 212 217 223 227 233 241 245
193 222 228 228 233 231 193 148 195 212 211 151 151 142 140 158 197 137 59 32 42 65 95 120 134 166 175 174 174 178 182 182 186 198 206 210 214 219 226 233 235 236 239 240
197 210 226 230 235 226 88 132 186 223 200 133 153 153 161 165 21 74 39 30 42 60 80 103 136 164 197 191 186 187 194 199 202 215 221 218 216 224 232 240 244 244 242 242
223 221 222 230 234 221 85 157 200 60 81 108 111 118 103 77 77 88 75 55 46 58 81 104 132 150 188 196 196 204 223 263 270 254 243 239 238 242 238 244 249 246 243 239
241 278 260 262 248 74 83 81 73 86 99 101 103 103 99 102 96 89 70 47 37 43 55 59 85 79 47 8 243 257 325 334 307 276 257 256 252 249 244 241 241 240 237 242
184 293 218 171 128 114 105 89 88 96 91 88 104 119 123 120 99 83 57 36 20 16 7 358 350 334 350 355 332 314 318 311 282 261 255 250 246 244 243 248 244 247 249 250
226 212 204 196 161 145 129 94 91 87 80 84 83 103 112 109 101 74 39 19 4 348 339 328 317 309 316 327 315 313 310 295 274 263 256 252 244 243 245 249 260 257 262 269
235 238 237 219 180 194 163 132 118 113 96 87 79 71 55 49 34 18 12 358 346 332 319 311 307 308 310 304 295 290 281 269 264 261 261 257 252 243 242 245 255 254 261 255
Height
1487 1487 1485 1482 1482 1482 1484 1488 1491 1489 1489 1492 1494 1494 1496 1502 1506 1509 1513 1516 1519 1521 1524 1527 1529 1531 1533 1534 1536 1538 1539 1541 1542 1543 1545 1546 1547 1548 1549 1549 1550 1550 1551 1552
1485 1484 1479 1479 1481 1484 1486 1490 1489 1488 1489 1492 1492 1492 1492 1498 1502 1505 1508 1511 1514 1518 1521 1524 1526 1528 1530 1532 1534 1536 1537 1539 1541 1542 1543 1545 1546 1547 1548 1548 1548 1549 1550 1551
1480 1477 1477 1481 1484 1486 1486 1486 1486 1489 1490 1490 1492 1494 1492 1493 1498 1502 1505 1507 1510 1513 1516 1520 1522 1525 1527 1529 1531 1533 1535 1537 1539 1541 1543 1544 1544 1546 1546 1547 1547 1548 1548 1549
1476 1474 1478 1481 1481 1482 1486 1480 1483 1487 1492 1491 1492 1498 1488 1487 1492 1496 1499 1502 1505 1509 1512 1515 1519 1521 1524 1526 1529 1531 1533 1535 1537 1539 1541 1542 1543 1545 1545 1546 1546 1546 1547 1547
1474 1474 1478 1480 1478 1477 1478 1478 1482 1485 1488 1490 1489 1494 1486 1483 1487 1489 1492 1496 1500 1504 1508 1511 1515 1518 1521 1523 1526 1528 1530 1532 1535 1537 1539 1540 1542 1543 1544 1544 1545 1545 1545 1546
1470 1472 1474 1474 1474 1476 1479 1482 1484 1484 1485 1499 1490 1493 1491 1478 1481 1482 1486 1492 1496 1500 1504 1508 1511 1515 1518 1520 1523 1525 1527 1529 1532 1534 1536 1538 1539 1540 1541 1542 1543 1544 1544 1544
1474 1472 1472 1473 1475 1478 1479 1486 1497 1501 1499 1495 1483 1490 1485 1474 1476 1479 1482 1487 1492 1496 1500 1504 1507 1511 1513 1516 1519 1522 1524 1526 1529 1531 1533 1535 1537 1538 1539 1540 1541 1541 1542 1543
1476 1476 1469 1469 1471 1474 1475 1477 1492 1504 1500 1488 1487 1488 1477 1473 1477 1479 1482 1485 1489 1492 1496 1500 1503 1506 1509 1512 1515 1518 1520 1523 1525 1528 1530 1532 1533 1535 1536 1537 1538 1539 1540 1540
1466 1469 1462 1465 1466 1467 1473 1472 1466 1477 1482 1487 1481 1478 1472 1472 1475 1477 1480 1483 1486 1490 1493 1496 1499 1503 1506 1509 1511 1514 1517 1520 1522 1525 1527 1528 1530 1532 1534 1534 1535 1536 1537 1537
1459 1468 1461 1464 1467 1468 1465 1465 1471 1477 1495 1498 1486 1481 1475 1471 1472 1474 1477 1480 1484 1488 1491 1494 1496 1500 1503 1506 1509 1511 1514 1516 1519 1522 1524 1526 1527 1529 1530 1531 1532 1533 1533 1534
1458 1465 1463 1463 1466 1465 1470 1471 1470 1471 1474 1489 1491 1478 1459 1465 1468 1472 1475 1479 1483 1486 1489 1491 1494 1497 1500 1503 1506 1508 1511 1513 1516 1518 1521 1523 1524 1525 1527 1528 1529 1529 1530 1530
1458 1459 1462 1460 1458 1458 1459 1463 1468 1478 1481 1477 1479 1474 1460 1464 1467 1471 1475 1479 1483 1486 1488 1490 1492 1495 1498 1501 1503 1505 1508 1511 1513 1515 1517 1519 1521 1522 1523 1524 1525 1526 1526 1527
1458 1461 1471 1469 1466 1463 1461 1461 1462 1464 1469 1473 1478 1472 1462 1466 1470 1474 1477 1480 1482 1485 1487 1489 1491 1493 1496 1498 1501 1503 1505 1508 1510 1512 1514 1516 1517 1519 1520 1521 1522 1523 1523 1523
1459 1458 1462 1467 1460 1456 1461 1461 1461 1464 1468 1470 1468 1465 1464 1466 1470 1474 1478 1480 1482 1484 1486 1488 1490 1492 1494 1496 1498 1500 1502 1505 1507 1509 1511 1513 1514 1515 1517 1518 1518 1519 1520 1520
1457 1458 1456 1453 1450 1451 1456 1458 1460 1463 1462 1465 1462 1461 1463 1466 1471 1476 1479 1481 1482 1484 1486 1487 1489 1491 1493 1495 1496 1498 1500 1502 1504 1506 1508 1509 1511 1512 1514 1514 1515 1515 1516 1516
1457 1457 1457 1459 1454 1453 1456 1456 1458 1461 1461 1461 1461 1463 1463 1469 1473 1477 1479 1481 1482 1484 1486 1487 1489 1490 1492 1493 1494 1496 1498 1499 1501 1503 1505 1506 1507 1509 1510 1511 1511 1512 1512 1513
1456 1458 1460 1458 1455 1457 1462 1459 1458 1460 1459 1460 1461 1462 1467 1471 1474 1477 1479 1480 1482 1483 1485 1487 1489 1490 1491 1492 1493 1494 1496 1497 1499 1500 1502 1503 1504 1505 1506 1507 1508 1508 1508 1509
1459 1458 1456 1455 1462 1472 1459 1456 1457 1459 1461 1462 1464 1466 1469 1473 1476 1478 1480 1481 1482 1483 1484 1485 1488 1489 1490 1491 1492 1493 1494 1495 1496 1498 1499 1500 1501 1502 1503 1503 1503 1504 1504 1505
1457 1458 1455 1455 1459 1459 1460 1459 1459 1461 1465 1466 1467 1470 1473 1474 1475 1478 1481 1482 1483 1483 1483 1484 1486 1488 1489 1489 1490 1491 1492 1493 1494 1494 1495 1496 1497 1498 1498 1499 1499 1499 1500 1500
1456 1456 1455 1455 1460 1463 1456 1458 1461 1463 1467 1469 1470 1472 1474 1474 1472 1476 1481 1482 1482 1482 1483 1483 1484 1487 1488 1488 1488 1489 1490 1490 1491 1491 1492 1493 1494 1494 1495 1495 1495 1495 1495 1496
1456 1457 1455 1455 1457 1453 1458 1461 1463 1468 1466 1470 1471 1474 1475 1476 1477 1480 1481 1481 1482 1482 1482 1482 1483 1485 1486 1486 1486 1487 1488 1488 1488 1489 1489 1490 1490 1490 1491 1491 1491 1491 1491 1491
1454 1453 1456 1454 1458 1461 1463 1462 1463 1467 1470 1471 1473 1475 1477 1478 1479 1480 1481 1481 1481 1481 1482 1482 1483 1484 1484 1484 1485 1485 1485 1486 1486 1486 1486 1487 1487 1488 1488 1487 1486 1486 1486 1486
1456 1456 1453 1457 1462 1466 1467 1467 1470 1471 1472 1473 1475 1476 1478 1479 1480 1480 1481 1481 1481 1481 1481 1482 1482 1483 1482 1482 1482 1482 1482 1482 1483 1483 1483 1484 1484 1484 1484 1483 1482 1482 1482 1482
1460 1462 1460 1462 1465 1467 1469 1470 1471 1472 1474 1475 1476 1477 1478 1479 1480 1480 1481 1481 1481 1481 1481 1481 1481 1481 1480 1480 1480 1480 1480 1479 1479 1480 1481 1481 1481 1480 1480 1480 1479 1479 1479 1478
1460 1461 1461 1463 1467 1468 1470 1472 1473 1474 1475 1475 1476 1477 1478 1479 1480 1480 1480 1480 1480 1481 1481 1481 1480 1480 1479 1478 1478 1478 1477 1477 1476 1477 1478 1478 1478 1477 1477 1476 1476 1475 1475 1474
1461 1462 1460 1461 1466 1467 1470 1472 1473 1474 1475 1476 1476 1477 1478 1478 1479 1479 1480 1480 1480 1480 1480 1480 1479 1478 1477 1476 1476 1476 1475 1475 1474 1474 1474 1474 1475 1474 1473 1473 1472 1471 1471 1470